Location: Warszawa
(52.2500°N, 21.0000°E)
Time: 19:10:40
(UTC+02:00)

A-11 Canister half - Pass Details

Date: 16 February 2023
Orbit: 1526 x 1682 km, 47.3° (Epoch: 27 March)

Event Time Altitude Azimuth Distance (km) Brightness Sun altitude
Exits shadow 01:27:33 22° 103° (ESE) 2,840 10.4 -45.7°
Drops below altitude 10° 01:31:18 10° 84° (E) 3,697 11.3 -45.3°
Sets 01:34:48 0° 74° (ENE) 4,686 12.1 -45.0°
